www.pogodaiklimat.ru

Погода и климат >> Архив погоды >> Италия >> Roma


АРХИВ ПОГОДЫ в Roma

Время (UTC), дата Ветер
(напр.,м/с)
 
Видим.   Явления Облачность Т
(С)
Тd
(С)
f
(%)
Тe
(С)
Тes
(С)
Комфортность P
(гПа)
Po
(гПа)
Тmin
(С)
Tmax
(С)
R
(мм)
R24
(мм)
S
(см)
18 11.06 З 3 25 км ясно +24.6 +15.8 58 +28 +28 душно 1010.3 1009.8 +28.6
21 11.06 Ю 2 25 км 1/0
[Ac cuf]
+22.9 +18.0 74 +28 +28 душно 1010.9 1010.5
00 12.06 В 2 25 км 1/0
[Ac lent]
+19.6 +17.6 88 +23 +23 комфорт 1010.2 1009.8
03 12.06 В 2 20 км 3/0
[Ac lent]
+17.5 +16.4 93 +18 +18 по сезону 1010.0 1009.7
06 12.06 ЮВ 2 20 км 4/4 210 м
[Cb calv Ac lent]
+22.2 +19.9 87 +28 +30 душно 1010.1 1009.6 +17.2
09 12.06 Ю 5 25 км 4/4 450 м
[Cb calv]
+25.5 +19.4 69 +31 +36 очень
душно
1010.2 1009.7
12 12.06 ЮЗ 7 25 км 4/4 540 м
[Cb calv]
+25.2 +20.1 73 +31 +34 очень
душно
1010.3 1009.8
15 12.06 ЮЗ 6 25 км 4/4 540 м
[Cb calv]
+24.7 +19.4 72 +30 +32 очень
душно
1009.7 1009.2
18 12.06 З 5 25 км 6/6 750 м
[Cb calv]
+23.1 +18.4 75 +29 +29 очень
душно
1009.5 1009.0 +26.5
21 12.06 ЮЗ 6 25 км 6/3 750 м
[Cu hum]
+22.1 +18.1 78 +27 +27 душно 1010.0 1009.6
00 13.06 ЮЗ 3 25 км 6/5 600 м
[Cu hum]
+22.2 +19.2 83 +28 +28 душно 1008.9 1008.5
03 13.06 В 2 25 км 6/5 500 м
[Cu hum Cs]
+18.4 +17.2 93 +20 +20 тепло 1007.8 1007.3
06 13.06 ЮЗ 1 25 км 8/8 360 м
[St]
+22.2 +19.1 83 +28 +29 душно 1007.9 1007.5 +17.8
09 13.06 З 4 40 км 4/3 450 м
[Cu med, cong Cs]
+24.4 +15.9 59 +28 +35 душно 1007.6 1007.1
12 13.06 З 5 40 км 5/5 450 м
[Cu med, cong Cs]
+24.3 +16.5 62 +28 +33 душно 1006.6 1006.1
15 13.06 ЮЗ 4 20 км осадки на расстоянии 6/5 600 м
[Cu med, cong Ac cast Ci]
+24.0 +14.4 55 +27 +29 жарко 1005.9 1005.5
18 13.06 ЮЗ 5 15 км гроза, ливневой дождь 8/4 750 м
[Cb cap Ac cuf Ci ing]
+20.8 +17.8 83 +25 +25 комфорт 1005.5 1005.0 +25.9 0.6
21 13.06 СВ 2 9000 м дождь {гроза} 9/4 750 м
[Cu Sc Ac cuf]
+18.6 +17.5 93 +20 +20 по сезону 1006.2 1005.7
00 14.06 В 1 10 км слабый дождь 8/8 1050 м
[Cu Sc]
+18.5 +17.1 92 +20 +20 тепло 1005.3 1004.8 3
03 14.06 С 1 10 км 4/0
[Ac lent]
+17.1 +16.4 96 +18 +18 по сезону 1004.6 1004.1
06 14.06 СВ 3 27 км {дождь} 5/3 600 м
[Cb calv Ac cuf Cc]
+20.2 +17.2 83 +24 +25 комфорт 1005.1 1004.6 +16.7 4
09 14.06 С 2 40 км 4/3 1200 м
[Cu med, cong Ac cuf Ci ing]
+25.5 +14.3 50 +28 +39 жарко 1005.3 1004.8
12 14.06 ЮЗ 7 40 км 4/3 1200 м
[Cu med, cong Ac cuf Ci ing]
+24.9 +17.9 65 +29 +33 душно 1005.4 1005.0
15 14.06 СЗ 2 15 км {ливн. осадки, дождь} 8/5 750 м
[Cu med, cong Ac cuf Ci ing]
+22.2 +19.0 82 +28 +31 душно 1006.1 1005.6
18 14.06 СЗ 1 30 км {ливн. осадки, дождь} 8/5 750 м
[Cu med, cong Ac cuf Ci ing]
+22.5 +18.7 79 +28 +28 душно 1006.9 1006.4 +26.3 0.4
21 14.06 С 2 15 км 5/0
[Ac cuf]
+19.2 +17.7 91 +22 +22 комфорт 1007.7 1007.3
00 15.06 СЗ 2 8000 м дымка 4/0
[Cs]
+17.0 +16.6 97 +17 +17 по сезону 1007.6 1007.6
03 15.06 С 2 40 км ясно +16.4 +14.2 87 +16 +16 прохладно 1007.4 1006.9
06 15.06 СВ 4 50 км 1/0
[Ci fib]
+21.0 +13.4 62 +24 +26 комфорт 1007.7 1007.2 +16.1
09 15.06 В 3 50 км 1/0
[Ci fib]
+26.0 +14.2 48 +28 +42 жарко 1007.8 1007.5
12 15.06 ЮЗ 6 50 км 4/0
[Ac trans]
+26.6 +14.1 46 +29 +35 жарко 1007.7 1007.3
15 15.06 З 6 50 км 5/3 1200 м
[Sc diur, vesp Ac As Ci ing]
+27.9 +14.6 44 +30 +33 жарко 1007.2 1006.7
18 15.06 В 2 50 км 6/4 1200 м
[Sc diur, vesp Ac As Ci ing]
+25.7 +17.4 60 +30 +30 душно 1007.4 1007.0 +28.3
21 15.06 СВ 2 20 км 4/0
[Ac As Cs]
+21.8 +17.7 78 +26 +26 душно 1009.2 1008.7
00 16.06 СВ 3 20 км 4/0
[Ac trans]
+21.1 +14.6 66 +24 +24 комфорт 1009.8 1009.3
03 16.06 СВ 2 27 км 4/1 1500 м
[Cu hum Ac As]
+19.4 +13.0 66 +21 +21 комфорт 1009.8 1009.3
06 16.06 СВ 4 60 км 1/0
[Ac trans]
+21.8 +13.1 58 +24 +27 комфорт 1010.4 1009.9 +18.9
09 16.06 З 2 >70 км 1/0
[Ci fib]
+26.0 +14.3 48 +28 +44 жарко 1010.6 1010.2
12 16.06 З 7 >70 км 4/4 1050 м
[Cu med, cong Ac cuf Ci ing]
+25.8 +15.1 52 +29 +32 душно 1010.5 1010.1
15 16.06 З 7 >70 км 4/4 1050 м
[Cu med, cong Ac cuf Ci ing]
+25.1 +16.3 58 +28 +30 жарко 1010.1 1010.1
18 16.06 З 5 >70 км 5/5 1350 м
[Sc diur, vesp Ac cuf Ci ing]
+23.7 +18.5 73 +28 +28 душно 1010.2 1009.7 +27.4
21 16.06 З 2 >70 км 4/0
[Ac cuf]
+21.8 +18.9 84 +27 +27 душно 1011.4 1010.9
00 17.06 С 2 20 км 4/0
[Ac As]
+19.5 +17.8 90 +22 +22 комфорт 1011.7 1011.2
03 17.06 С 3 20 км 4/0
[Ac As]
+17.7 +15.3 86 +18 +18 по сезону 1011.8 1011.3
06 17.06 С 4 20 км 1/0
[Ci]
+22.4 +13.9 59 +26 +28 жарко 1012.2 1011.7 +17.3
09 17.06 З 5 20 км 1/0
[Ci]
+26.1 +15.7 53 +29 +37 жарко 1012.6 1012.2
12 17.06 З 8 20 км 4/1 1050 м
[Cu hum Ci]
+27.5 +15.9 49 +31 +33 душно 1012.3 1011.9
15 17.06 З 10 20 км 6/3 1200 м
[Cb calv Cs]
+27.3 +15.4 48 +30 +30 душно 1011.2 1010.7
18 17.06 З 7 20 км 6/1 1200 м
[Cu hum Cs]
+24.0 +17.7 68 +28 +28 душно 1011.4 1010.9 +28.0
21 17.06 С 2 20 км ясно +20.4 +17.7 84 +25 +25 комфорт 1012.9 1012.5
00 18.06 В 2 >70 км 1/0
[Ac trans]
+19.2 +16.7 85 +22 +22 комфорт 1013.1 1012.6
03 18.06 СВ 1 >70 км 1/0
[Ac trans]
+17.9 +15.2 84 +19 +19 по сезону 1012.7 1012.2
06 18.06 СВ 3 60 км 1/0
[Ci fib]
+23.1 +14.1 57 +27 +30 душно 1013.1 1012.7 +16.9
15 18.06 З 4 60 км 5/5 450 м
[Cu Sc Ac cuf Ci fib]
+26.9 +16.7 54 +31 +34 душно 1012.7 1012.3

 

Местоположение метеостанции Roma (Италия): широта 41.80 долгота 12.23 высота над уровнем моря 3 м.

В архиве по умолчанию представлена погода в Roma за последнюю неделю. Архивные данные за месяц целиком и за предыдущие месяцы, начиная с января 2011 года, Вы можете получить, выбрав интересующий диапазон дат из раскрывающегося списка и нажав кнопку "Ввод!".


*Определитесь, кто Вы:
робот инопланетянин человек

Внимание! Время в таблицах - всемирное. Для получения местного времени необходимо прибавить поправку, которая в Roma равна 1 ч.

Смотрите также архив погоды в соседних городах и на ближайших метеорологических станциях:

Погода в Pratica di Mare (Италия) (25 км)
Погода в Vigna di Valle (Италия) (31 км)
Погода в Civitavecchia (Италия) (42 км)
Погода в Guidonia (Италия) (47 км)
Погода в Latina (Италия) (62 км)
Погода в Latina (Италия) (62 км)
Погода в Viterbo (Италия) (72 км)
Погода в Frosinone (Италия) (91 км)
Погода в Torre Olevola (Италия) (96 км)
Погода в Monte Terminillo (Италия) (97 км)

Пояснения к столбцам:

Ветер - указаны скорость ветра в м/с - средняя за 10 мин, порывы в срок и между сроками (в фигурных скобках) и направление, откуда дует ветер: С - северный, СВ - северо-восточный, В - восточный, ЮВ - юго-восточный, Ю - южный, ЮЗ - юго-западный, З - западный, СЗ - северо-западный.
Видимость - горизонтальная дальность видимости в метрах или километрах. При видимости от 1 до 10 км при отсутствии осадков обычно наблюдается дымка, при ухудшении видимости до 1 км и менее - туман. В сухую погоду видимость может ухудшаться дымом, пылью или мглою.
Явления - указаны атмосферные явления, наблюдавшиеся в срок или в последний час перед сроком; фигурными скобками обозначены явления, наблюдавшиеся между сроками (за 1-3 часа до срока); квадратными скобками обозначены град или гололедные отложения с указанием их диаметра в мм.
Облачность - указаны через наклонную черту общая и нижняя облачность в баллах и высота нижней границы облаков в метрах; квадратными скобками обозначены формы облаков: Ci - перистые, Cs - перисто-слоистые, Cc - перисто-кучевые, Ac - высококучевые, As - высокослоистые, Sc - слоисто-кучевые, Ns - слоисто-дождевые, Cu - кучевые, Cb - кучево-дождевые. Подробнее классификацию облаков см. в Атласе облаков (PDF).
T - Температура воздуха - температура, измеренная на высоте 2 м над землей.
Td - Температура точки росы - температура, при понижении до которой содержащийся в воздухе водяной пар достигнет насыщения.
f - Относительная влажность воздуха - влажноcть воздуха, измеренная на высоте 2 м над землей.
Te - Эффективная температура - температура, которую ощущает одетый по сезону человек в тени. Характеристика душности погоды. При расчете учитывается влияние влажности воздуха и скорости ветра на теплоощущения человека.
Tes - Эффективная температура на солнце - температура, которую ощущает человек, с поправкой на солнечный нагрев. Характеристика знойности погоды. Зависит от высоты солнца над горизонтом, облачности и скорости ветра. Ночью, в пасмурную погоду, а также при ветре 12 м/с и более поправка равна нулю.
P - Атмосферное давление - приведенное к уровню моря атмосферное давление.
Po - Атмосферное давление - измеренное на уровне метеостанции атмосферное давление.
Tmin - Минимальная температура - минимум температуры воздуха на высоте 2 м над землей.
Tmax - Максимальная температура - максимум температуры воздуха на высоте 2 м над землей.
R - Количество осадков - Количество выпавших осадков за период времени, мм. При наведении курсора мыши на число - период времени, за который выпало указанное количество осадков.
R24 - Количество осадков - Количество выпавших осадков за 24 часа, мм.
S - Снежный покров - Высота снежного покрова, см. При наведении курсора мыши на число - состояние снежного покрова и степень покрытия местности в баллах.